Location: Aulnoy
(48.8410°N, 3.0967°E)
Time: 23:10:34
(UTC+00:00)

Envisat - Pass Details

Date: 07 March 2024
Orbit: 762 x 764 km, 98.3° (Epoch: 12 April)

Event Time Altitude Azimuth Distance (km) Brightness Sun altitude
Rises 01:36:12 0° 33° (NNE) 3,239 7.1 -41.6°
Reaches altitude 10° 01:40:42 10° 71° (ENE) 2,305 5.9 -41.2°
Enters shadow 01:41:09 10° 76° (ENE) 2,272 5.9 -41.2°
